Regional Weather Roundup
Issued by NWS Charleston, SC

Current Version | Previous Version | Graphics & Text | Print | Product List | Glossary On
Versions: 1 2 3 4 5 6 7 8 9 10 11 12 13 14 15 16 17 18 19 20 21 22 23 24 25 26 27 28 29 30 31 32 33 34 35 36 37 38 39 40 41 42 43 44 45 46 47 48 49 50
000
ASUS42 KCHS 281726
RWRCHS

REGIONAL WEATHER ROUNDUP
NATIONAL WEATHER SERVICE CHARLESTON SC
1200 PM EST SAT FEB 28 2015

NOTE: "FAIR" INDICATES FEW OR NO CLOUDS BELOW 12,000 FEET WITH NO
SIGNIFICANT WEATHER AND/OR OBSTRUCTIONS TO VISIBILITY.

NOT ALL STATIONS ARE QUALITY CONTROLLED BY THE NATIONAL
WEATHER SERVICE. USE DATA WITH CAUTION...ESPECIALLY
DEWPOINT OBSERVATIONS.

SCZ027-030-031-034>040-042>050-281800-
...SOUTHEAST SOUTH CAROLINA...

CITY           SKY/WX    TMP DP  RH WIND       PRES   REMARKS
N CHARLESTON   MOSUNNY   50  29  44 NE14      30.61F
WATERFRONT PRK   N/A     46 N/A N/A N16         N/A
MOUNT PLEASANT FAIR      48  28  46 NE8G17    30.61F
PINOPOLIS        N/A     45  30  57 NE13      30.56F
MONCKS CORNER  PTSUNNY   52  30  43 NE8       30.62F
SUMMERVILLE    PTSUNNY   50  32  50 NE10G18   30.61F
BEAUFORT MCAS  CLOUDY    49  29  46 NE16      30.58F
BEAUFORT ARPT  CLOUDY    50  34  53 NE17      30.57F
HILTON HEAD IS PTSUNNY   46  32  57 N16G22    30.57F
WALTERBORO     CLOUDY    50  30  46 NE10G22   30.61F
ALLENDALE      PTSUNNY   50  32  50 NE8       30.60S

...SOUTHERN MIDLANDS AND PEE DEE...

CITY           SKY/WX    TMP DP  RH WIND       PRES   REMARKS
GEORGETOWN     NOT AVBL
KINGSTREE      NOT AVBL
ORANGEBURG     SUNNY     47  28  47 NE13G21   30.63F
BARNWELL       FAIR      52  32  46 E10       30.62F
AIKEN          FAIR      45  28  53 NE12G17   30.66R
MANNING        FAIR      50  21  32 NE10G16   30.64F
COLUMBIA       PTSUNNY   46  26  45 NE10      30.66F
SUMTER         MOSUNNY   45  26  47 NE12      30.64F
FLORENCE       SUNNY     47  24  40 NE15G21   30.68F
MYRTLE BEACH   MOSUNNY   45  27  49 NE12      30.68F
N MYRTLE BEACH CLOUDY    46  25  43 NE9       30.66F

$$

GAZ063-065-086>088-099>101-113>116-118-119-134>141-150-281800-
...SOUTHEAST GEORGIA...

CITY           SKY/WX    TMP DP  RH WIND       PRES   REMARKS
SAVANNAH ARPT  CLOUDY    49  29  46 NE12      30.56F
HUNTER AAF     LGT RAIN  48  32  53 NE10G21   30.53F
FORT STEWART   LGT RAIN  49  36  62 NE9       30.52S
STATESBORO     CLOUDY    49  32  52 E8G16     30.56F
SYLVANIA       MOSUNNY   51  34  53 E16G22    30.58F
CLAXTON        CLOUDY    48  34  57 NE10      30.55F

...CSRA...CENTRAL AND FAR SOUTHEAST GEORGIA...

CITY           SKY/WX    TMP DP  RH WIND       PRES   REMARKS
THOMSON        MOSUNNY   47  33  56 NE7       30.67S
AUGUSTA-BUSH   SUNNY     51  28  41 E12       30.62F
AUGUSTA-DANIEL SUNNY     51  27  39 NE9       30.62F
SWAINSBORO     CLOUDY    54  21  28 E8        30.57F
VIDALIA        CLOUDY    50  34  53 NE10      30.55S
EASTMAN        CLOUDY    51  36  56 NE10      30.57S
HAZLEHURST     LGT RAIN  48  43  85 E7        30.51F
ALMA           LGT RAIN  45  43  93 NE6       30.51F FOG
WAYCROSS       DRIZZLE   49  47  95 E10       30.50F
JESUP          LGT RAIN  46  45  93 E12       30.53S
BAXLEY         DRIZZLE   48  43  81 NE13G20   30.51F
BRUNSWICK      CLOUDY    46  43  87 NE15G24   30.52S
SAINT SIMONS   CLOUDY    46  44  93 NE20G33   30.50F FOG

$$

SCZ027-028-034-036>038-045-046-048>050-GAZ119-141-281800-
...LAKE AND SUPPLEMENTAL COASTAL OBSERVATIONS...

STATION/POSITION TIME  TEMP    WIND        PRES    WAVE   SWELL
                       AIR SEA DIR/SP/G            HT/PER HT/PER/DIR
                 (UTC) (F)     (DEG/KT/KT) (MB)    (FT/S) (FT/S/D)
UPR LAKE MARION  NOT AVBL
WINYAH BAY       1600   38      40/ 18     1037.0
LAKE MURRAY      1600   39      30/  5/  8 1037.9S
ACE BASIN NERRS  NOT AVBL
FORT PULASKI     1600   45 49   30/ 15/ 21 1035.3F
SAPELO ISLAND    1700   45      30/ 17     1033.0S

$$

ANZ835-935-AMZ111-154-330-350-352-354-370-450-454-472-281800-
...C-MAN AND BUOY OBSERVATIONS...

STATION/POSITION TIME  TEMP    WIND        PRES    WAVE   SWELL
                       AIR SEA DIR/SP/G            HT/PER HT/PER/DIR
                 (UTC) (F)     (DEG/KT/KT) (MB)    (FT/S) (FT/S/D)
BUOY 41004       1650   52 65   40/ 27/ 33 1033.9S   9/ 8   3/14
BUOY 41008       1650   50 51   40/ 25/ 31 1031.9R   9/ 8
FOLLY BEACH CMAN 1700   42      40/ 19/ 22 1037.0F
CAPERS NEARSHORE NOT AVBL
FRIPP NEARSHORE  1600   44      50/ 25/ 29 1033.7F


STATION/POSITION TIME  TEMP    WIND        PRES    WAVE   SWELL
                       AIR SEA DIR/SP/G            HT/PER HT/PER/DIR
                 (UTC) (F)     (DEG/KT/KT) (MB)    (FT/S) (FT/S/D)
5E ST. MARYS GA  1621      52                N/A     7/ 6   2/120/11
FRYING PAN BUOY  1650   46 62   40/ 23/ 29 1037.3S   9/ 8
BUOY 41025       NOT AVBL
CAPE LOOKOUT NC  1700   39      20/ 18/ 22 1039.1F
BUOY 41002       1650   66 69   50/ 19/ 23 1032.7F   9/ 8   3/360/11
BUOY 41010       1620   69 71   70/ 23/ 29 1028.5R
ST AUGUSTINE FL  1700   56     360/ 16/ 17 1030.3S


$$


USA.gov is the U.S. government's official web portal to all federal, state and local government web resources and services.